Weerstation Grootegast  Weerstation Grootegast


15 daagse weersverwachting Donostia / San SebastiƔn (ES)

  • Overzicht
  • Per uur
  • 15 dagen
  • Extra
  • Vergelijk
  • Kaarten
  • Dagkaart
  • Meer »
  • Info
  • Statistieken
  • Directe link
    Temp 6h Neerslag Wind  
 06:56     19:30    Daglengte: 12:34 Vandaag
13:00
14°
 
3
19:00
12°
 
2
 06:54     19:31    Daglengte: 12:37 Morgen
01:00
 
2
08:00
 
2
14:00
13°
 
4
20:00
10°
2.0 mm
5
 06:52     19:32    Daglengte: 12:40 Maandag 30 Maa
02:00
6.4 mm
5
08:00
3.5 mm
5
14:00
3.2 mm
5
20:00
1.8 mm
4
 06:51     19:33    Daglengte: 12:42 Dinsdag 31 Maa
02:00
 
2
08:00
 
1
Locatie info
Region: Basque Country
Latitude: 43.3128°N
Longitude: -1.9750°E
17 masl
Temp/Neerslag /Baro Onweer/Dauwpunt
    Temp Baro 1h Neerslag Dauwpunt Wind UV Bewolking  
 06:56     19:30    Daglengte: 12:34 Vandaag
13:00
14°
1019.6 hPa   7.8°
3
Windvlaag: -1.9 m/s
66%
14:00
14°
1019.4 hPa   8.0°
3
Windvlaag: -1.9 m/s
56%
15:00
14°
1019.0 hPa   7.6°
3
Windvlaag: -1.7 m/s
54%
16:00
14°
1018.8 hPa   6.8°
3
Windvlaag: -1.7 m/s
29%
17:00
13°
1018.8 hPa   6.7°
3
Windvlaag: -1.7 m/s
30%
18:00
13°
1019.2 hPa   6.3°
3
Windvlaag: -1.3 m/s
59%
19:00
12°
1019.8 hPa   7.3°
2
Windvlaag: -0.7 m/s
26%
20:00
10°
1020.3 hPa   7.3°
1
Windvlaag: -0.7 m/s
3%
21:00
Voelt als: 9.4°
1020.9 hPa   6.4°
1
Windvlaag: -0.6 m/s
3%
22:00
Voelt als: 8.4°
1021.3 hPa   5.8°
1
Windvlaag: 0.7 m/s
2%
23:00
Voelt als: 7.1°
1021.6 hPa   5.3°
1
Windvlaag: 0.9 m/s
2%
 06:54     19:31    Daglengte: 12:37 Morgen
00:00
Voelt als: 6.5°
1021.7 hPa   4.9°
2
Windvlaag: 1.2 m/s
0%
01:00
Voelt als: 6.3°
1021.8 hPa   4.5°
2
Windvlaag: 1.3 m/s
1%
03:00
Voelt als: 6.1°
1021.6 hPa   4.4°
2
Windvlaag: 1.3 m/s
6%
04:00
Voelt als: 5.9°
1021.1 hPa
13%
4.7°
2
Windvlaag: 1.4 m/s
10%
05:00
Voelt als: 5.6°
1020.8 hPa
14%
5.1°
2
Windvlaag: 1.5 m/s
12%
06:00
Voelt als: 5.7°
1020.7 hPa
49%
5.5°
2
Windvlaag: 1.7 m/s
19%
07:00
Voelt als: 5.7°
1020.8 hPa
56%
5.7°
2
Windvlaag: 1.9 m/s
16%
08:00
Voelt als: 5.6°
1021.0 hPa
58%
5.9°
2
Windvlaag: 1.9 m/s
11%
09:00
Voelt als: 6.9°
1021.5 hPa
63%
6.5°
2
Windvlaag: 1.9 m/s
16%
10:00
10°
1021.7 hPa
72%
7.7°
2
Windvlaag: 1.9 m/s
26%
11:00
12°
1021.9 hPa
66%
7.8°
3
Windvlaag: 1.3 m/s
30%
12:00
12°
1021.7 hPa
25%
7.8°
4
Windvlaag: -0.6 m/s
43%
13:00
13°
1021.6 hPa
30%
7.6°
4
Windvlaag: -0.7 m/s
63%
14:00
13°
1021.5 hPa
80%
7.6°
4
Windvlaag: -1.1 m/s
74%
15:00
13°
1021.1 hPa 0.2 mm
82%
8.4°
5
Windvlaag: -0.9 m/s
85%
16:00
12°
1020.8 hPa 0.4 mm
82%
8.8°
4
Windvlaag: -0.9 m/s
62%
17:00
12°
1020.6 hPa 0.5 mm
78%
8.2°
4
Windvlaag: -1.2 m/s
73%
18:00
11°
1020.6 hPa
82%
7.7°
4
Windvlaag: -2.1 m/s
84%
19:00
11°
1020.6 hPa 0.3 mm
82%
7.0°
5
Windvlaag: -3.1 m/s
87%
20:00
10°
1021.2 hPa 0.7 mm
82%
6.6°
5
Windvlaag: -3.2 m/s
91%
21:00
10°
Voelt als: 7.1°
1021.7 hPa 1.2 mm
82%
5.0°
6
Windvlaag: -3.6 m/s
91%
22:00
Voelt als: 6.2°
1022.4 hPa 1.1 mm
82%
3.6°
6
Windvlaag: -3.5 m/s
91%
23:00
Voelt als: 4.8°
1023.1 hPa 1.5 mm
82%
2.9°
6
Windvlaag: -4 m/s
91%
 06:52     19:32    Daglengte: 12:40 Maandag 30 Maa
00:00
Voelt als: 3.8°
1023.5 hPa 0.9 mm
82%
2.2°
6
Windvlaag: -4.4 m/s
82%
01:00
Voelt als: 3.3°
1023.4 hPa 0.9 mm
82%
1.4°
6
Windvlaag: -2.8 m/s
79%
02:00
Voelt als: 3.0°
1023.3 hPa 0.9 mm
82%
1.1°
5
Windvlaag: -2.5 m/s
83%
03:00
Voelt als: 2.9°
1023.0 hPa 0.9 mm
82%
1.1°
5
Windvlaag: -1.8 m/s
70%
04:00
Voelt als: 3.2°
1022.6 hPa
79%
1.3°
4
Windvlaag: -1.5 m/s
43%
05:00
Voelt als: 3.3°
1022.2 hPa 0.5 mm
80%
0.9°
4
Windvlaag: -1.1 m/s
45%
06:00
Voelt als: 2.5°
1022.0 hPa 0.6 mm
82%
1.2°
5
Windvlaag: -1.7 m/s
62%
07:00
Voelt als: 2.0°
1021.9 hPa 0.8 mm
82%
1.5°
5
Windvlaag: -1.7 m/s
66%
08:00
Voelt als: 1.7°
1021.9 hPa 0.6 mm
82%
1.7°
5
Windvlaag: -1.4 m/s
55%
09:00
Voelt als: 1.5°
1022.1 hPa 0.6 mm
82%
1.9°
5
Windvlaag: -0.4 m/s
52%
10:00
Voelt als: 1.8°
1022.2 hPa 0.5 mm
82%
2.1°
5
Windvlaag: -0.3 m/s
64%
11:00
Voelt als: 2.4°
1021.7 hPa 0.8 mm
98%
2.5°
4
Windvlaag: -0.4 m/s
73%
12:00
Voelt als: 3.0°
1021.4 hPa 0.7 mm
93%
2.9°
4
Windvlaag: -0.7 m/s
60%
13:00
Voelt als: 3.3°
1021.0 hPa 0.6 mm
43%
2.5°
5
Windvlaag: -0.8 m/s
53%
14:00
Voelt als: 3.7°
1020.4 hPa
34%
2.2°
5
Windvlaag: -0.8 m/s
53%
15:00
Voelt als: 4.3°
1019.8 hPa
35%
1.4°
4
Windvlaag: -1.1 m/s
39%
16:00
Voelt als: 4.6°
1019.4 hPa
98%
1.2°
4
Windvlaag: -1.3 m/s
64%
17:00
Voelt als: 4.0°
1018.7 hPa 0.6 mm
100%
0.7°
5
Windvlaag: -1.1 m/s
40%
18:00
Voelt als: 4.4°
1018.4 hPa 0.7 mm
100%
-0.6°
4
Windvlaag: -0.5 m/s
54%
19:00
Voelt als: 2.9°
1018.3 hPa 0.6 mm
100%
0.6°
5
Windvlaag: -0.4 m/s
76%
20:00
Voelt als: 2.4°
1018.3 hPa
100%
1.8°
4
Windvlaag: -0.3 m/s
82%
21:00
Voelt als: 2.4°
1018.8 hPa
100%
1.8°
3
Windvlaag: -0 m/s
70%
22:00
Voelt als: 3.3°
1019.0 hPa
98%
1.4°
2
Windvlaag: 1.2 m/s
86%
23:00
Voelt als: 3.6°
1018.9 hPa
92%
1.9°
2
Windvlaag: 1.4 m/s
86%
 06:51     19:33    Daglengte: 12:42 Dinsdag 31 Maa
00:00
Voelt als: 3.1°
1018.6 hPa
93%
2.7°
2
Windvlaag: 1.5 m/s
87%
01:00
Voelt als: 3.2°
1018.2 hPa
88%
2.8°
2
Windvlaag: 1.1 m/s
90%
02:00
Voelt als: 3.3°
1017.6 hPa
41%
2.1°
2
Windvlaag: 1.1 m/s
86%
03:00
Voelt als: 3.1°
1017.3 hPa
27%
1.7°
2
Windvlaag: 2.2 m/s
88%
04:00
Voelt als: 3.6°
1017.0 hPa
24%
1.9°
2
Windvlaag: 2.1 m/s
93%
05:00
Voelt als: 3.6°
1016.6 hPa
22%
1.8°
2
Windvlaag: 1.3 m/s
96%
06:00
Voelt als: 3.7°
1016.6 hPa
25%
1.8°
2
Windvlaag: 1.1 m/s
93%
07:00
Voelt als: 3.9°
1016.4 hPa
75%
1.6°
1
Windvlaag: 1.2 m/s
92%
08:00
Voelt als: 4.1°
1016.4 hPa
88%
1.6°
1
Windvlaag: 0.9 m/s
96%
09:00
Voelt als: 4.4°
1016.4 hPa
81%
1.5°
1
Windvlaag: 4.5 m/s
90%
10:00
Voelt als: 4.6°
1016.2 hPa
35%
1.4°
2
Windvlaag: 4.5 m/s
90%
11:00
Voelt als: 4.9°
1016.1 hPa
25%
1.3°
2
Windvlaag: 4 m/s
77%
12:00
Voelt als: 5.6°
1015.9 hPa
21%
1.3°
2
Windvlaag: 3.8 m/s
53%
13:00
Voelt als: 6.1°
1015.7 hPa
21%
1.1°
2
Windvlaag: 3.6 m/s
52%
Temp/Neerslag /Baro Onweer/Dauwpunt
    Temp Baro Neerslag Dauwpunt Wind Bewolking  
 06:56     19:30    Daglengte: 12:34 Vandaag
13:00
14°
1019.6 hPa   7.8°
3
66%
16:00
14°
1018.8 hPa   6.8°
3
29%
19:00
12°
1019.8 hPa   7.3°
2
26%
22:00
Voelt als: 8.4°
1021.3 hPa   5.8°
1
2%
 06:54     19:31    Daglengte: 12:37 Morgen
01:00
Voelt als: 6.3°
1021.8 hPa   4.5°
2
1%
04:00
Voelt als: 5.9°
1021.1 hPa   4.7°
2
10%
05:00
Voelt als: 5.6°
1020.8 hPa   5.1°
2
12%
08:00
Voelt als: 5.6°
1021.0 hPa   5.9°
2
11%
11:00
12°
1021.9 hPa   7.8°
3
30%
14:00
13°
1021.5 hPa   7.6°
4
74%
17:00
12°
1020.6 hPa 1.1 mm 8.2°
4
73%
20:00
10°
1021.2 hPa 1.0 mm 6.6°
5
91%
23:00
Voelt als: 4.8°
1023.1 hPa 3.7 mm 2.9°
6
91%
 06:52     19:32    Daglengte: 12:40 Maandag 30 Maa
02:00
Voelt als: 3.0°
1023.3 hPa 2.6 mm 1.1°
5
83%
05:00
Voelt als: 3.3°
1022.2 hPa 1.4 mm 0.9°
4
45%
08:00
Voelt als: 1.7°
1021.9 hPa 2.0 mm 1.7°
5
55%
11:00
Voelt als: 2.4°
1021.7 hPa 1.9 mm 2.5°
4
73%
14:00
Voelt als: 3.7°
1020.4 hPa 1.3 mm 2.2°
5
53%
17:00
Voelt als: 4.0°
1018.7 hPa 0.6 mm 0.7°
5
40%
20:00
Voelt als: 2.4°
1018.3 hPa 1.2 mm 1.8°
4
82%
23:00
Voelt als: 3.6°
1018.9 hPa   1.9°
2
86%
 06:51     19:33    Daglengte: 12:42 Dinsdag 31 Maa
02:00
Voelt als: 3.3°
1017.6 hPa   2.1°
2
86%
05:00
Voelt als: 3.6°
1016.6 hPa   1.8°
2
96%
08:00
Voelt als: 4.1°
1016.4 hPa   1.6°
1
96%
11:00
Voelt als: 4.9°
1016.1 hPa   1.3°
2
77%
14:00
Voelt als: 6.4°
1015.5 hPa   0.8°
3
70%
17:00
Voelt als: 6.3°
1015.0 hPa 5.2 mm 1.9°
2
87%
20:00
Voelt als: 6.3°
1014.6 hPa 5.2 mm 2.6°
2
92%
23:00
Voelt als: 4.9°
1014.8 hPa 5.2 mm 3.5°
3
93%
 06:49     19:35    Daglengte: 12:46 Woensdag 01 Apr
02:00
Voelt als: 4.3°
1014.8 hPa 5.2 mm 4.2°
3
93%
05:00
Voelt als: 4.5°
1014.0 hPa 5.2 mm 4.5°
3
93%
08:00
Voelt als: 4.9°
1013.5 hPa 3.3 mm 5.0°
2
93%
11:00
Voelt als: 6.5°
1013.5 hPa 3.1 mm 5.9°
1
93%
14:00
Voelt als: 7.2°
1013.5 hPa 6.1 mm 6.8°
2
93%
17:00
Voelt als: 7.7°
1013.3 hPa 3.3 mm 7.4°
2
93%
20:00
Voelt als: 8.0°
1013.2 hPa 3.3 mm 7.9°
2
93%
23:00
Voelt als: 7.3°
1013.7 hPa 6.5 mm 7.5°
3
93%
 06:47     19:36    Daglengte: 12:49 Donderdag 02 Apr
02:00
Voelt als: 6.9°
1014.0 hPa 6.5 mm 7.1°
3
92%
05:00
Voelt als: 7.1°
1014.1 hPa 6.5 mm 6.9°
2
93%
08:00
Voelt als: 7.3°
1014.4 hPa 6.5 mm 6.7°
1
93%
11:00
Voelt als: 8.0°
1015.8 hPa 6.5 mm 6.6°
2
92%
14:00
10°
Voelt als: 8.2°
1017.1 hPa 6.5 mm 6.4°
3
90%
17:00
10°
Voelt als: 8.1°
1017.4 hPa 6.6 mm 6.9°
3
69%
20:00
10°
Voelt als: 8.2°
1018.0 hPa 3.5 mm 7.5°
3
49%
23:00
10°
Voelt als: 7.5°
1019.1 hPa 3.7 mm 6.0°
4
70%
 06:45     19:37    Daglengte: 12:52 Vrijdag 03 Apr
02:00
Voelt als: 6.9°
1020.0 hPa 4.5 mm 4.3°
5
91%
05:00
Voelt als: 7.4°
1019.6 hPa 4.5 mm 3.9°
3
93%
08:00
Voelt als: 8.0°
1019.4 hPa 4.8 mm 3.5°
2
93%
11:00
10°
1019.4 hPa 4.6 mm 3.9°
3
92%
14:00
11°
1019.3 hPa 4.7 mm 4.0°
3
92%
17:00
11°
1018.2 hPa 9.2 mm 4.7°
3
50%
20:00
10°
1017.2 hPa 9.2 mm 5.5°
3
7%
23:00
Voelt als: 6.5°
1017.3 hPa 9.2 mm 5.0°
3
6%
 06:44     19:38    Daglengte: 12:54 Zaterdag 04 Apr
02:00
Voelt als: 4.2°
1017.1 hPa 4.7 mm 4.5°
2
7%
05:00
Voelt als: 3.3°
1016.3 hPa 9.3 mm 4.0°
2
19%
08:00
Voelt als: 2.6°
1015.7 hPa 18.5 mm 3.5°
2
26%
14:00
16°
1014.7 hPa 18.5 mm 9.6°
3
0%
20:00
14°
1014.0 hPa 18.5 mm 9.6°
2
0%
 06:42     19:39    Daglengte: 12:57 Zondag 05 Apr
02:00
11°
1014.4 hPa 18.5 mm 4.9°
4
69%
08:00
13°
1014.6 hPa 18.5 mm 5.4°
6
0%
14:00
21°
1015.2 hPa 18.5 mm 8.4°
3
1%
20:00
18°
1014.3 hPa 18.5 mm 11.1°
3
0%
 06:40     19:40    Daglengte: 13:00 Maandag 06 Apr
02:00
17°
1014.6 hPa 18.5 mm 6.4°
6
91%
08:00
16°
1013.7 hPa 18.5 mm 5.9°
7
42%
14:00
22°
1013.1 hPa 18.5 mm 9.0°
6
47%
20:00
19°
1014.3 hPa 18.5 mm 10.4°
3
92%
 06:38     19:42    Daglengte: 13:04 Dinsdag 07 Apr
02:00
15°
1018.0 hPa 18.5 mm 2.8°
6
0%
08:00
10°
Voelt als: 8.2°
1018.4 hPa 0.1 mm 6.3°
3
42%
14:00
17°
1018.0 hPa 0.1 mm 9.2°
2
43%
20:00
16°
1016.8 hPa 0.6 mm 10.6°
1
49%
 06:37     19:43    Daglengte: 13:06 Woensdag 08 Apr
02:00
12°
1019.0 hPa 0.8 mm 8.3°
2
46%
08:00
11°
1018.3 hPa 0.5 mm 7.7°
3
55%
14:00
18°
1017.6 hPa 0.5 mm 10.2°
3
54%
20:00
17°
1016.5 hPa 0.7 mm 11.3°
1
48%
 06:35     19:44    Daglengte: 13:09 Donderdag 09 Apr
02:00
12°
1018.4 hPa 0.5 mm 8.8°
2
42%
08:00
11°
1018.2 hPa 0.4 mm 8.2°
2
39%
14:00
18°
1017.9 hPa 0.4 mm 10.5°
1
48%
20:00
17°
1016.9 hPa 0.6 mm 11.4°
0
47%
 06:33     19:45    Daglengte: 13:12 Vrijdag 10 Apr
02:00
13°
1018.9 hPa 0.6 mm 9.1°
2
41%
08:00
11°
1018.8 hPa 0.2 mm 8.2°
2
38%
14:00
19°
1018.9 hPa 0.4 mm 10.8°
0
36%
20:00
17°
1017.8 hPa 1.3 mm 11.7°
1
46%
 06:31     19:46    Daglengte: 13:15 Zaterdag 11 Apr
02:00
13°
1019.5 hPa 0.9 mm 9.5°
1
48%
08:00
11°
1019.4 hPa 0.3 mm 8.4°
2
50%
14:00
18°
1019.2 hPa 0.3 mm 10.4°
1
47%
20:00
16°
1018.4 hPa 0.6 mm 10.8°
2
45%
 06:30     19:48    Daglengte: 13:18 Zondag 12 Apr
02:00
12°
1020.7 hPa 1.4 mm 8.8°
1
55%
08:00
10°
1021.1 hPa 0.6 mm 7.8°
0
50%
  CAPE Lifted Index Hail Supercell Tornado SRH 3km CL BTM PRES CL TOP PRES Swiss DWD icon SMHI TS
 06:56     19:30    Daglengte: 12:34 Vandaag
13:00 0 J/kg 6.3 K 0 % 0 % 0 % 0 m²/s² 0 0 8.1 3
14:00 0 J/kg 6.0 K 0 % 0 % 0 % 0 m²/s² 0 0 7.86 2
15:00 0 J/kg 6.2 K 0 % 0 % 0 % 0 m²/s² 0 0 8.06 3
16:00 0 J/kg 6.5 K 0 % 0 % 0 % 0 m²/s² 0 0 8.42 3
17:00 0 J/kg 6.6 K 0 % 0 % 0 % 0 m²/s² 0 0 8.64 2
18:00 0 J/kg 6.5 K 0 % 0 % 0 % 0 m²/s² 0 0 8.54 3
19:00 0 J/kg 6.0 K 0 % 0 % 0 % 0 m²/s² 0 0 7.83 2
20:00 0 J/kg 5.8 K 0 % 0 % 0 % 0 m²/s² 0 0 7.57 1
21:00 0 J/kg 5.9 K 0 % 0 % 0 % 0 m²/s² 0 0 7.94 0
22:00 0 J/kg 6.0 K 0 % 0 % 0 % 0 m²/s² 0 0 8.1 0
23:00 0 J/kg 6.1 K 0 % 0 % 0 % 0 m²/s² 0 0 8.26 1
 06:54     19:31    Daglengte: 12:37 Morgen
00:00 0 J/kg 6.1 K 0 % 0 % 0 % 0 m²/s² 0 0 8.47 2
01:00 0 J/kg 6.0 K 0 % 0 % 0 % 0 m²/s² 0 0 8.52 2
03:00 0 J/kg 5.8 K 0 % 0 % 0 % 0 m²/s² 0 0 8.32 2
04:00 1 J/kg 6.0 K 0 % 0 % 0 % 0 m²/s² 0 0 8.73 2
05:00 1 J/kg 6.1 K 0 % 0 % 0 % 0 m²/s² 0 0 8.98 2
06:00 2 J/kg 6.3 K 0 % 0 % 0 % 0 m²/s² 0 0 9.27 2
07:00 2 J/kg 6.3 K 0 % 0 % 0 % 0 m²/s² 0 0 9.42 2
08:00 2 J/kg 6.3 K 0 % 0 % 0 % 0 m²/s² 0 0 9.51 2
09:00 0 J/kg 6.4 K 0 % 0 % 0 % 0 m²/s² 0 0 9.61 2
10:00 5 J/kg 5.8 K 0 % 0 % 0 % 0 m²/s² 0 0 8.77 2
11:00 16 J/kg 5.4 K 0 % 0 % 0 % 0 m²/s² 0 0 7.89 2
12:00 29 J/kg 4.8 K 0 % 0 % 0 % 0 m²/s² 0 0 7.17 3
13:00 50 J/kg 4.3 K 0 % 0 % 0 % 0 m²/s² 0 0 6.67 3
14:00 76 J/kg 3.6 K 0 % 0 % 0 % 0 m²/s² 0 0 5.97 61
15:00 82 J/kg 3.5 K 0 % 0 % 0 % 0 m²/s² 0 0 5.78 61
16:00 12 J/kg 5.2 K 0 % 0 % 0 % 0 m²/s² 0 0 7.36 61
17:00 1 J/kg 5.3 K 0 % 0 % 0 % 0 m²/s² 0 0 7.25 61
18:00 9 J/kg 5.5 K 0 % 0 % 0 % 0 m²/s² 0 0 7.33 3
19:00 9 J/kg 5.5 K 0 % 0 % 0 % 0 m²/s² 0 0 7.15 61
20:00 3 J/kg 5.8 K 0 % 0 % 0 % 0 m²/s² 0 0 6.82 61
21:00 3 J/kg 6.8 K 0 % 0 % 0 % 0 m²/s² 0 0 7.37 61
22:00 12 J/kg 9.7 K 0 % 0 % 0 % 0 m²/s² 0 0 10.15 61
23:00 13 J/kg 11.4 K 0 % 0 % 0 % 0 m²/s² 0 0 11.85 61
 06:52     19:32    Daglengte: 12:40 Maandag 30 Maa
00:00 14 J/kg 12.4 K 0 % 0 % 0 % 0 m²/s² 0 0 15.07 61
01:00 1 J/kg 13.7 K 0 % 0 % 0 % 0 m²/s² 0 0 24.92 61
02:00 4 J/kg 14.2 K 0 % 0 % 0 % 0 m²/s² 0 0 24.76 61
03:00 8 J/kg 14.3 K 0 % 0 % 0 % 0 m²/s² 0 0 24.83 61
04:00 23 J/kg 14.3 K 0 % 0 % 0 % 0 m²/s² 0 0 24.74 61
05:00 38 J/kg 14.5 K 0 % 0 % 0 % 0 m²/s² 0 0 26.11 3
06:00 38 J/kg 15.0 K 0 % 0 % 0 % 0 m²/s² 0 0 25.89 3
07:00 43 J/kg 15.1 K 0 % 0 % 0 % 0 m²/s² 0 0 24.79 3
08:00 32 J/kg 15.4 K 0 % 0 % 0 % 0 m²/s² 0 0 23.74 3
09:00 28 J/kg 15.8 K 0 % 0 % 0 % 0 m²/s² 0 0 23.42 3
10:00 19 J/kg 16.2 K 0 % 0 % 0 % 0 m²/s² 0 0 23.22 3
11:00 13 J/kg 16.3 K 0 % 0 % 0 % 0 m²/s² 0 0 23.26 3
12:00 6 J/kg 15.8 K 0 % 0 % 0 % 0 m²/s² 0 0 22.28 2
13:00 3 J/kg 15.0 K 0 % 0 % 0 % 0 m²/s² 0 0 20.04 2
14:00 4 J/kg 13.6 K 0 % 0 % 0 % 0 m²/s² 0 0 18.13 3
15:00 8 J/kg 11.9 K 0 % 0 % 0 % 0 m²/s² 0 0 16.19 3
16:00 13 J/kg 10.4 K 0 % 0 % 0 % 0 m²/s² 0 0 14.48 3
17:00 7 J/kg 9.6 K 0 % 0 % 0 % 0 m²/s² 0 0 13.59 61
18:00 2 J/kg 9.2 K 0 % 0 % 0 % 0 m²/s² 0 0 12.95 61
19:00 2 J/kg 9.5 K 0 % 0 % 0 % 0 m²/s² 0 0 13.07 61
20:00 4 J/kg 9.4 K 0 % 0 % 0 % 0 m²/s² 0 0 12.31 61
21:00 16 J/kg 9.4 K 0 % 0 % 0 % 0 m²/s² 0 0 12.01 2
22:00 15 J/kg 9.9 K 0 % 0 % 0 % 0 m²/s² 0 0 11.67 2
23:00 22 J/kg 9.9 K 0 % 0 % 0 % 0 m²/s² 0 0 10.59 3
 06:51     19:33    Daglengte: 12:42 Dinsdag 31 Maa
00:00 13 J/kg 10.7 K 0 % 0 % 0 % 0 m²/s² 0 0 12.56 3
01:00 10 J/kg 10.0 K 0 % 0 % 0 % 0 m²/s² 0 0 12.25 2
02:00 4 J/kg 9.5 K 0 % 0 % 0 % 0 m²/s² 0 0 11.87 3
03:00 5 J/kg 9.2 K 0 % 0 % 0 % 0 m²/s² 0 0 11.39 3
04:00 4 J/kg 8.8 K 0 % 0 % 0 % 0 m²/s² 0 0 10.75 3
05:00 19 J/kg 7.9 K 0 % 0 % 0 % 0 m²/s² 0 0 9.73 3
06:00 16 J/kg 8.0 K 0 % 0 % 0 % 0 m²/s² 0 0 9.5 3
07:00 4 J/kg 8.2 K 0 % 0 % 0 % 0 m²/s² 0 0 9.55 3
08:00 2 J/kg 8.6 K 0 % 0 % 0 % 0 m²/s² 0 0 9.71 3
09:00 2 J/kg 8.5 K 0 % 0 % 0 % 0 m²/s² 0 0 9.61 3
10:00 12 J/kg 8.3 K 0 % 0 % 0 % 0 m²/s² 0 0 9.35 3
11:00 7 J/kg 8.5 K 0 % 0 % 0 % 0 m²/s² 0 0 10.54 3
12:00 3 J/kg 8.6 K 0 % 0 % 0 % 0 m²/s² 0 0 10.85 2
13:00 1 J/kg 8.5 K 0 % 0 % 0 % 0 m²/s² 0 0 10.63 2
Temp Baro Wind Neerslag
  EWN Forecast EWN WRFDA DWD ICON FMI HIRLAM MET Norway GFSWXSIM
 06:56     19:30    Daglengte: 12:34 Vandaag
13:00 13.6° 1019.6 hPa 2.7 m/s 0.0 mm 12.5° 1017.5 hPa 3.0 m/s 0.0 mm 13.5° 1020.1 hPa 2.2 m/s -2.0 mm 14.1° 1019.6 hPa 2.6 m/s 0.0 mm 13.8° 1019.5 hPa 2.7 m/s 14.2° 1018.3 hPa 2.0 m/s 14.4° 1018.0 hPa 4.0 m/s 0.0 mm
16:00 13.7° 1018.8 hPa 2.9 m/s 0.0 mm 12.6° 1017.4 hPa 3.7 m/s 0.0 mm 13.3° 1019.4 hPa 2.5 m/s 0.0 mm 14.8° 1018.5 hPa 3.1 m/s 0.0 mm 13.8° 1018.8 hPa 2.9 m/s 13.9° 1017.6 hPa 2.8 m/s 15.1° 1017.0 hPa 9.0 m/s 0.0 mm
19:00 11.9° 1019.8 hPa 1.7 m/s 0.0 mm 11.0° 1018.0 hPa 2.3 m/s 0.0 mm 12.0° 1020.2 hPa 1.0 m/s 0.0 mm 12.8° 1020.1 hPa 2.4 m/s 0.0 mm 11.6° 1019.8 hPa 1.7 m/s 10.4° 1018.4 hPa 1.6 m/s 13.2° 1018.0 hPa 8.0 m/s 0.0 mm
22:00 8.6° 1021.3 hPa 1.2 m/s 0.0 mm 8.6° 1019.4 hPa 0.8 m/s 0.0 mm 10.1° 1021.5 hPa 0.6 m/s 0.0 mm 9.2° 1021.9 hPa 0.9 m/s 0.0 mm 8.3° 1020.9 hPa 1.6 m/s 7.9° 1020.9 hPa 0.7 m/s 11.0° 1021.0 hPa 3.0 m/s 0.0 mm
 06:54     19:31    Daglengte: 12:37 Morgen
01:00 7.3° 1021.8 hPa 1.8 m/s 0.0 mm 7.5° 1019.9 hPa 2.5 m/s 0.0 mm 8.1° 1022.0 hPa 1.0 m/s 0.0 mm 7.5° 1022.5 hPa 1.8 m/s 0.0 mm 7.3° 1021.5 hPa 1.7 m/s 7.3° 1021.5 hPa 1.2 m/s 9.9° 1021.0 hPa 2.0 m/s 0.0 mm
04:00 7.2° 1021.1 hPa 2.1 m/s 7.5° 1019.3 hPa 3.1 m/s 7.6° 1021.8 hPa 0.9 m/s 6.8° 1022.1 hPa 1.9 m/s 7.5° 1021.0 hPa 2.1 m/s 9.7° 1021.0 hPa 5.0 m/s
05:00 7.1° 1020.8 hPa 2.3 m/s 0.0 mm 7.5° 1018.9 hPa 3.3 m/s 0.0 mm 7.6° 1021.5 hPa 0.9 m/s 0.1 mm 6.7° 1021.8 hPa 2.4 m/s 0.0 mm 7.4° 1020.7 hPa 2.2 m/s 7.1° 1020.7 hPa 1.5 m/s 9.6° 1021.0 hPa 6.0 m/s 0.0 mm
08:00 7.2° 1021.0 hPa 2.4 m/s 0.0 mm 7.3° 1019.1 hPa 4.0 m/s 0.0 mm 7.8° 1021.8 hPa 1.2 m/s 0.1 mm 6.6° 1022.2 hPa 2.4 m/s 0.0 mm 7.6° 1020.9 hPa 2.3 m/s 7.0° 1020.8 hPa 1.5 m/s 9.4° 1021.0 hPa 7.0 m/s 0.0 mm
11:00 11.8° 1021.9 hPa 3.0 m/s 0.0 mm 12.0° 1019.9 hPa 3.9 m/s 0.0 mm 11.4° 1022.5 hPa 3.2 m/s 0.3 mm 11.9° 1022.3 hPa 2.4 m/s 0.0 mm 11.9° 1021.8 hPa 3.4 m/s 11.8° 1021.1 hPa 2.4 m/s 11.9° 1021.0 hPa 11.0 m/s 0.0 mm
14:00 12.7° 1021.5 hPa 4.4 m/s 0.0 mm 13.1° 1019.7 hPa 6.3 m/s 0.1 mm 11.7° 1021.6 hPa 4.7 m/s 0.1 mm 13.6° 1022.0 hPa 4.2 m/s 0.0 mm 12.8° 1021.6 hPa 4.1 m/s 11.9° 1020.3 hPa 3.8 m/s 12.7° 1020.0 hPa 16.0 m/s 0.3 mm
17:00 11.8° 1020.6 hPa 4.2 m/s 1.1 mm 12.0° 1019.2 hPa 5.9 m/s 0.7 mm 10.8° 1020.7 hPa 4.9 m/s 1.0 mm 12.6° 1021.2 hPa 3.7 m/s 0.0 mm 12.0° 1020.7 hPa 3.9 m/s 10.7° 1019.7 hPa 4.2 m/s 12.5° 1020.0 hPa 18.0 m/s 0.5 mm
20:00 10.5° 1021.2 hPa 5.3 m/s 1.0 mm 11.0° 1019.0 hPa 7.2 m/s 1.1 mm 9.1° 1021.6 hPa 4.9 m/s 0.9 mm 11.4° 1021.7 hPa 5.4 m/s 0.0 mm 10.8° 1020.9 hPa 5.0 m/s 9.4° 1020.3 hPa 4.5 m/s 11.5° 1020.0 hPa 23.0 m/s 0.5 mm
23:00 8.2° 1023.1 hPa 6.4 m/s 3.7 mm 8.7° 1022.7 hPa 8.3 m/s 5.2 mm 7.1° 1023.2 hPa 6.5 m/s 4.2 mm 9.8° 1023.4 hPa 5.7 m/s 0.0 mm 8.3° 1022.9 hPa 6.1 m/s 8.4° 1022.8 hPa 6.4 m/s 9.3° 1023.0 hPa 28.0 m/s 1.2 mm
 06:52     19:32    Daglengte: 12:40 Maandag 30 Maa
02:00 6.5° 1023.3 hPa 5.4 m/s 2.6 mm 6.8° 1022.4 hPa 9.5 m/s 6.6 mm 6.2° 1023.0 hPa 5.4 m/s 2.6 mm 7.9° 1024.6 hPa 6.6 m/s 0.0 mm 6.4° 1023.5 hPa 4.5 m/s 6.1° 1023.2 hPa 6.8 m/s 7.5° 1023.0 hPa 29.0 m/s 0.5 mm
05:00 6.2° 1022.2 hPa 4.0 m/s 1.4 mm 5.9° 1021.9 hPa 9.0 m/s 6.6 mm 5.9° 1022.3 hPa 4.0 m/s 1.4 mm 8.2° 1023.9 hPa 7.0 m/s 0.0 mm 6.0° 1022.2 hPa 2.9 m/s 4.7° 1023.5 hPa 5.4 m/s 6.4° 1023.0 hPa 26.0 m/s 0.3 mm
08:00 5.1° 1021.9 hPa 4.6 m/s 2.0 mm 5.2° 1021.7 hPa 8.3 m/s 6.6 mm 5.3° 1021.2 hPa 4.3 m/s 0.2 mm 5.9° 1024.3 hPa 5.8 m/s 0.0 mm 4.8° 1022.2 hPa 4.4 m/s 3.9° 1022.9 hPa 4.6 m/s 4.5° 1023.0 hPa 23.0 m/s 2.0 mm
11:00 5.5° 1021.7 hPa 4.2 m/s 1.9 mm 5.4° 1021.7 hPa 8.5 m/s 6.6 mm 4.6° 1021.8 hPa 4.8 m/s 0.3 mm 5.9° 1022.8 hPa 4.0 m/s 4.2° 1022.4 hPa 4.7 m/s 4.5° 1022.0 hPa 23.0 m/s 2.3 mm
14:00 6.8° 1020.4 hPa 4.8 m/s 1.3 mm 6.4° 1020.6 hPa 7.1 m/s 6.6 mm 6.1° 1020.2 hPa 4.1 m/s 0.0 mm 6.9° 1021.9 hPa 5.1 m/s 5.1° 1020.8 hPa 4.9 m/s 6.0° 1021.0 hPa 22.0 m/s 1.3 mm
17:00 7.0° 1018.7 hPa 4.5 m/s 0.6 mm 7.3° 1018.9 hPa 8.4 m/s 6.6 mm 6.0° 1018.5 hPa 3.2 m/s 0.2 mm 7.0° 1020.2 hPa 4.5 m/s 6.3° 1019.7 hPa 5.9 m/s 7.0° 1020.0 hPa 23.0 m/s 0.5 mm
20:00 5.6° 1018.3 hPa 4.4 m/s 1.2 mm 7.4° 1017.5 hPa 6.3 m/s 6.6 mm 5.3° 1018.2 hPa 2.9 m/s 0.7 mm 5.0° 1020.5 hPa 4.8 m/s 6.2° 1019.9 hPa 6.0 m/s 7.0° 1020.0 hPa 26.0 m/s 0.3 mm
23:00 5.1° 1018.9 hPa 1.8 m/s 0.0 mm 7.1° 1018.2 hPa 7.6 m/s 6.6 mm 4.3° 1018.8 hPa 1.9 m/s 0.2 mm 5.0° 1020.8 hPa 1.3 m/s 4.9° 1020.5 hPa 4.9 m/s 6.4° 1021.0 hPa 24.0 m/s 0.2 mm
 06:51     19:33    Daglengte: 12:42 Dinsdag 31 Maa
02:00 5.3° 1017.6 hPa 2.4 m/s 0.0 mm 6.9° 1016.0 hPa 5.7 m/s 6.6 mm 3.8° 1017.5 hPa 1.2 m/s 0.0 mm 5.5° 1019.3 hPa 2.5 m/s 3.0° 1019.4 hPa 2.0 m/s 5.4° 1019.0 hPa 14.0 m/s 0.3 mm
05:00 5.0° 1016.6 hPa 1.8 m/s 0.0 mm 6.7° 1014.0 hPa 4.2 m/s 6.6 mm 3.8° 1016.8 hPa 0.9 m/s 0.0 mm 5.2° 1018.1 hPa 1.9 m/s 2.8° 1017.9 hPa 0.8 m/s 5.1° 1018.0 hPa 12.0 m/s 0.2 mm
08:00 4.8° 1016.4 hPa 1.2 m/s 0.0 mm 6.0° 1013.0 hPa 1.6 m/s 6.6 mm 4.0° 1017.0 hPa 0.4 m/s 0.0 mm 4.9° 1016.9 hPa 1.3 m/s 1.6° 1017.4 hPa 1.3 m/s 4.9° 1017.0 hPa 6.0 m/s 0.0 mm
11:00 6.4° 1016.1 hPa 2.1 m/s 0.0 mm 7.5° 1012.7 hPa 4.0 m/s 6.6 mm 6.3° 1017.6 hPa 1.1 m/s 0.0 mm 6.3° 1016.2 hPa 2.0 m/s 6.8° 1016.8 hPa 0.7 m/s 6.3° 1017.0 hPa 5.0 m/s 0.0 mm
14:00 8.1° 1015.5 hPa 2.7 m/s 0.0 mm 8.2° 1012.8 hPa 3.2 m/s 6.6 mm 8.9° 1016.6 hPa 1.9 m/s 0.0 mm 7.7° 1015.6 hPa 2.8 m/s 7.6° 1016.1 hPa 2.3 m/s 8.8° 1016.0 hPa 7.0 m/s 0.0 mm
17:00 7.7° 1015.0 hPa 2.3 m/s 5.2 mm 7.6° 1014.9 hPa 2.1 m/s 7.4° 1015.2 hPa 2.1 m/s 5.3 mm 8.9° 1015.0 hPa 5.0 m/s 0.0 mm
20:00 7.6° 1014.6 hPa 2.1 m/s 5.2 mm 7.6° 1014.6 hPa 1.7 m/s 6.5° 1014.8 hPa 1.6 m/s 5.3 mm 8.6° 1015.0 hPa 8.0 m/s 0.0 mm
23:00 7.1° 1014.8 hPa 3.2 m/s 5.2 mm 7.0° 1014.6 hPa 2.1 m/s 6.0° 1015.9 hPa 2.1 m/s 5.3 mm 8.2° 1016.0 hPa 17.0 m/s 0.0 mm
 06:49     19:35    Daglengte: 12:46 Woensdag 01 Apr
02:00 6.6° 1014.8 hPa 3.2 m/s 5.2 mm 6.5° 1014.6 hPa 2.5 m/s 5.5° 1015.9 hPa 1.7 m/s 5.3 mm 8.4° 1016.0 hPa 13.0 m/s 0.0 mm
05:00 6.4° 1014.0 hPa 2.6 m/s 5.2 mm 6.2° 1013.9 hPa 1.9 m/s 6.1° 1014.7 hPa 1.5 m/s 5.3 mm 8.5° 1015.0 hPa 12.0 m/s 0.0 mm
08:00 6.1° 1013.5 hPa 1.7 m/s 3.3 mm 6.0° 1013.2 hPa 1.2 m/s 5.7° 1014.9 hPa 1.0 m/s 5.8 mm 7.7° 1015.0 hPa 9.0 m/s 0.8 mm
11:00 7.2° 1013.5 hPa 1.4 m/s 3.1 mm 7.0° 1013.3 hPa 1.5 m/s 7.6° 1014.7 hPa 0.6 m/s 6.1 mm 8.1° 1015.0 hPa 1.0 m/s 0.2 mm
14:00 8.4° 1013.5 hPa 2.1 m/s 6.1 mm 8.1° 1013.4 hPa 1.9 m/s 8.9° 1014.5 hPa 1.5 m/s 6.1 mm 11.0° 1014.0 hPa 5.0 m/s 0.0 mm
17:00 8.8° 1013.3 hPa 2.1 m/s 3.3 mm 8.4° 1013.2 hPa 2.0 m/s 9.7° 1014.0 hPa 1.4 m/s 6.2 mm 11.7° 1014.0 hPa 4.0 m/s 0.3 mm
20:00 9.0° 1013.2 hPa 2.1 m/s 3.3 mm 8.8° 1013.0 hPa 2.1 m/s 9.3° 1014.2 hPa 0.9 m/s 6.4 mm 11.7° 1014.0 hPa 4.0 m/s 0.2 mm
23:00 8.9° 1013.7 hPa 2.8 m/s 6.5 mm 8.7° 1013.3 hPa 2.1 m/s 9.1° 1016.2 hPa 1.6 m/s 6.4 mm 11.5° 1016.0 hPa 13.0 m/s 0.0 mm
 06:47     19:36    Daglengte: 12:49 Donderdag 02 Apr
02:00 8.7° 1014.0 hPa 2.9 m/s 6.5 mm 8.5° 1013.6 hPa 2.1 m/s 8.3° 1016.4 hPa 2.0 m/s 6.4 mm 11.0° 1016.0 hPa 14.0 m/s 0.0 mm
05:00 8.2° 1014.1 hPa 2.0 m/s 6.5 mm 8.0° 1013.9 hPa 1.6 m/s 8.4° 1015.8 hPa 0.8 m/s 6.4 mm 11.0° 1015.0 hPa 8.0 m/s 0.0 mm
08:00 7.8° 1014.4 hPa 1.3 m/s 6.5 mm 7.5° 1014.1 hPa 1.2 m/s 8.3° 1016.8 hPa 0.3 m/s 6.4 mm 11.0° 1016.0 hPa 4.0 m/s 0.0 mm
11:00 8.8° 1015.8 hPa 1.8 m/s 6.5 mm 8.6° 1015.5 hPa 1.6 m/s 10.2° 1017.6 hPa 0.8 m/s 6.4 mm 11.0° 1017.0 hPa 5.0 m/s 0.0 mm
14:00 9.8° 1017.1 hPa 3.2 m/s 6.5 mm 9.6° 1016.9 hPa 2.0 m/s 10.4° 1018.2 hPa 4.7 m/s 6.5 mm 11.5° 1018.0 hPa 16.0 m/s 0.0 mm
17:00 9.9° 1017.4 hPa 3.5 m/s 6.6 mm 9.8° 1017.3 hPa 2.0 m/s 10.5° 1017.9 hPa 5.5 m/s 6.6 mm 11.2° 1018.0 hPa 19.0 m/s 0.0 mm
20:00 9.9° 1018.0 hPa 3.3 m/s 3.5 mm 9.9° 1017.8 hPa 2.0 m/s 9.2° 1018.8 hPa 4.7 m/s 6.7 mm 10.4° 1019.0 hPa 18.0 m/s 0.3 mm
23:00 9.6° 1019.1 hPa 4.0 m/s 3.7 mm 9.7° 1018.8 hPa 2.7 m/s 8.6° 1020.6 hPa 4.0 m/s 7.1 mm 9.5° 1021.0 hPa 19.0 m/s 0.2 mm
 06:45     19:37    Daglengte: 12:52 Vrijdag 03 Apr
02:00 9.3° 1020.0 hPa 4.5 m/s 4.5 mm 9.4° 1019.9 hPa 3.4 m/s 8.6° 1020.9 hPa 4.2 m/s 7.8 mm 8.9° 1021.0 hPa 18.0 m/s 1.1 mm
05:00 9.2° 1019.6 hPa 3.4 m/s 4.5 mm 9.4° 1019.6 hPa 2.1 m/s 8.1° 1019.8 hPa 4.2 m/s 8.4 mm 8.5° 1020.0 hPa 18.0 m/s 0.7 mm
08:00 9.2° 1019.4 hPa 2.3 m/s 4.8 mm 9.4° 1019.3 hPa 0.9 m/s 7.3° 1020.5 hPa 3.2 m/s 8.8 mm 8.1° 1020.0 hPa 18.0 m/s 0.8 mm
11:00 10.2° 1019.4 hPa 2.5 m/s 4.6 mm 10.4° 1019.2 hPa 1.3 m/s 8.2° 1020.7 hPa 3.6 m/s 9.0 mm 8.6° 1021.0 hPa 16.0 m/s 0.2 mm
14:00 11.3° 1019.3 hPa 2.7 m/s 4.7 mm 11.5° 1019.1 hPa 1.7 m/s 10.0° 1020.4 hPa 4.1 m/s 9.2 mm 10.0° 1020.0 hPa 14.0 m/s 0.3 mm
17:00 10.9° 1018.2 hPa 3.0 m/s 9.2 mm 10.8° 1018.0 hPa 2.0 m/s 10.3° 1019.1 hPa 3.7 m/s 9.2 mm 11.6° 1019.0 hPa 13.0 m/s 0.0 mm
20:00 10.2° 1017.2 hPa 3.1 m/s 9.2 mm 10.2° 1016.9 hPa 2.4 m/s 8.8° 1019.3 hPa 2.5 m/s 9.2 mm 11.7° 1019.0 hPa 12.0 m/s 0.0 mm
23:00 8.1° 1017.3 hPa 2.6 m/s 9.2 mm 7.8° 1016.7 hPa 2.2 m/s 8.1° 1021.1 hPa 0.9 m/s 9.2 mm 10.6° 1021.0 hPa 9.0 m/s 0.0 mm
 06:44     19:38    Daglengte: 12:54 Zaterdag 04 Apr
02:00 6.0° 1017.1 hPa 2.5 m/s 4.7 mm 5.5° 1016.5 hPa 2.0 m/s 8.5° 1021.1 hPa 0.5 m/s 9.3 mm 9.9° 1021.0 hPa 10.0 m/s 0.2 mm
05:00 5.3° 1016.3 hPa 2.4 m/s 9.3 mm 4.8° 1015.6 hPa 1.9 m/s 6.5° 1020.2 hPa 1.1 m/s 9.3 mm 9.5° 1020.0 hPa 11.0 m/s 0.0 mm
08:00 4.5° 1015.7 hPa 2.2 m/s 9.3 mm 4.1° 1014.8 hPa 1.7 m/s 5.3° 1020.6 hPa 1.3 m/s 9.3 mm 9.0° 1021.0 hPa 9.0 m/s 0.0 mm
14:00 16.4° 1014.7 hPa 3.2 m/s 9.3 mm 16.9° 1014.0 hPa 2.6 m/s 12.4° 1018.8 hPa 3.2 m/s 9.3 mm 13.7° 1019.0 hPa 10.0 m/s 0.0 mm
20:00 13.7° 1014.0 hPa 2.2 m/s 9.3 mm 13.9° 1013.4 hPa 1.6 m/s 10.3° 1017.7 hPa 2.1 m/s 9.3 mm 14.0° 1017.0 hPa 10.0 m/s 0.0 mm
 06:42     19:39    Daglengte: 12:57 Zondag 05 Apr
02:00 11.2° 1014.4 hPa 3.7 m/s 9.3 mm 11.6° 1013.9 hPa 3.9 m/s 6.9° 1019.8 hPa 2.1 m/s 9.3 mm
08:00 13.0° 1014.6 hPa 6.0 m/s 9.3 mm 13.6° 1014.1 hPa 6.3 m/s 5.9° 1019.9 hPa 2.3 m/s 9.3 mm
14:00 21.1° 1015.2 hPa 3.2 m/s 9.3 mm 21.3° 1014.9 hPa 3.3 m/s 18.5° 1018.3 hPa 2.5 m/s 9.3 mm
20:00 18.2° 1014.3 hPa 3.0 m/s 9.3 mm 18.5° 1014.0 hPa 3.1 m/s 14.8° 1017.3 hPa 2.0 m/s 9.3 mm
 06:40     19:40    Daglengte: 13:00 Maandag 06 Apr
02:00 16.7° 1014.6 hPa 6.3 m/s 9.3 mm 17.2° 1014.2 hPa 6.6 m/s 11.1° 1019.3 hPa 3.1 m/s 9.3 mm
08:00 15.7° 1013.7 hPa 7.0 m/s 9.3 mm 16.1° 1013.2 hPa 7.3 m/s 11.1° 1018.6 hPa 3.7 m/s 9.3 mm
14:00 21.7° 1013.1 hPa 5.8 m/s 9.3 mm 21.8° 1012.7 hPa 6.1 m/s 20.7° 1017.9 hPa 3.1 m/s 9.3 mm
20:00 19.4° 1014.3 hPa 3.1 m/s 9.3 mm 19.5° 1014.1 hPa 3.1 m/s 18.4° 1016.0 hPa 3.2 m/s 9.3 mm
 06:38     19:42    Daglengte: 13:04 Dinsdag 07 Apr
02:00 15.4° 1018.0 hPa 6.0 m/s 9.3 mm 15.4° 1018.0 hPa 6.0 m/s 9.3 mm
08:00 9.6° 1018.4 hPa 2.7 m/s 0.1 mm
14:00 17.2° 1018.0 hPa 1.7 m/s 0.1 mm
20:00 16.4° 1016.8 hPa 1.3 m/s 0.6 mm
 06:37     19:43    Daglengte: 13:06 Woensdag 08 Apr
02:00 12.0° 1019.0 hPa 2.4 m/s 0.8 mm
08:00 10.7° 1018.3 hPa 3.1 m/s 0.5 mm
14:00 18.0° 1017.6 hPa 2.5 m/s 0.5 mm
20:00 17.2° 1016.5 hPa 0.8 m/s 0.7 mm
 06:35     19:44    Daglengte: 13:09 Donderdag 09 Apr
02:00 12.5° 1018.4 hPa 2.3 m/s 0.5 mm
08:00 11.3° 1018.2 hPa 2.5 m/s 0.4 mm
14:00 18.3° 1017.9 hPa 1.4 m/s 0.4 mm
20:00 17.3° 1016.9 hPa 0.4 m/s 0.6 mm
 06:33     19:45    Daglengte: 13:12 Vrijdag 10 Apr
02:00 12.8° 1018.9 hPa 1.6 m/s 0.6 mm
08:00 11.5° 1018.8 hPa 2.0 m/s 0.2 mm
14:00 18.6° 1018.9 hPa 0.4 m/s 0.4 mm
20:00 17.2° 1017.8 hPa 1.3 m/s 1.3 mm
 06:31     19:46    Daglengte: 13:15 Zaterdag 11 Apr
02:00 12.8° 1019.5 hPa 0.9 m/s 0.9 mm
08:00 11.3° 1019.4 hPa 1.6 m/s 0.3 mm
14:00 18.2° 1019.2 hPa 1.1 m/s 0.3 mm
20:00 16.5° 1018.4 hPa 1.8 m/s 0.6 mm
 06:30     19:48    Daglengte: 13:18 Zondag 12 Apr
02:00 11.8° 1020.7 hPa 0.6 m/s 1.4 mm
08:00 10.4° 1021.1 hPa 0.4 m/s 0.6 mm
FMI Hirlam - 7.5 km EWN WRFDA - 12 km DWD ICON - 7 km GFS - 25 km Basiskaart






























































Updatetijd (Europe/Amsterdam) Resolutie Lengte Stap
FMI Hirlam 07:15, 13:15, 19:15, 01:15 7.5 km 49h 1h
EWN WRFDA 08:30, 14:30, 20:30, 03:30 12 km 73h 1h
DWD ICON 10:45, 16:45, 22:45, 05:45 7 km 75h 1h
GFS 07:00, 13:00, 19:00, 01:00 25 km 237h 3h
30+ mm
25-30 mm
20-25 mm
15-20 mm
10-15 mm
6-10 mm
4-6 mm
2-4 mm
1-2 mm
0.5-1 mm
0.2-0.5 mm
0.1-0.2 mm
30+ mm
25-30 mm
20-25 mm
15-20 mm
10-15 mm
6-10 mm
4-6 mm
2-4 mm
1-2 mm
0.5-1 mm
0.2-0.5 mm
0.1-0.2 mm
Sneeuwval
Natte sneeuw
Hagel
Vorst
30+ mm
25-30 mm
20-25 mm
15-20 mm
10-15 mm
6-10 mm
4-6 mm
2-4 mm
1-2 mm
0.5-1 mm
0.2-0.5 mm
0.1-0.2 mm
Sneeuwval
Natte sneeuw
Hagel
Vorst
Onweer
50 mm
40 mm
30 mm
26 mm
22 mm
18 mm
14 mm
10 mm
9 mm
8 mm
7 mm
6 mm
5 mm
4.5 mm
4 mm
3.5 mm
3 mm
2.5 mm
2 mm
1.5 mm
1 mm
0.8 mm
0.6 mm
0.4 mm
0.2 mm
0.05 mm
35°
30°
25°
20°
15°
10°
-5°
-10°
-15°
-20°
-25°
-30°
-35°
33> m/s
29 m/s
25 m/s
21 m/s
17 m/s
14 m/s
11 m/s
8 m/s
5 m/s
3 m/s
0 m/s
2600 J/kg
2400 J/kg
2200 J/kg
2000 J/kg
1800 J/kg
1600 J/kg
1400 J/kg
1200 J/kg
1000 J/kg
800 J/kg
600 J/kg
400 J/kg
200 J/kg
70 dBZ
65 dBZ
60 dBZ
55 dBZ
50 dBZ
45 dBZ
40 dBZ
35 dBZ
30 dBZ
25 dBZ
20 dBZ
15 dBZ
10 dBZ
5 dBZ
-1 K
-2 K
-3 K
-4 K
-5 K
-6 K
-7 K
-8 K
-9 K
950 m²/s²
900 m²/s²
850 m²/s²
800 m²/s²
750 m²/s²
700 m²/s²
650 m²/s²
600 m²/s²
550 m²/s²
500 m²/s²
450 m²/s²
400 m²/s²
350 m²/s²
300 m²/s²
250 m²/s²
200 m²/s²
150 m²/s²
100 m²/s²
46 m/s
44 m/s
42 m/s
40 m/s
38 m/s
36 m/s
34 m/s
32 m/s
30 m/s
28 m/s
26 m/s
24 m/s
22 m/s
20 m/s
16 m/s
12 m/s
8 m/s
4 m/s
30 m/s
28 m/s
26 m/s
24 m/s
22 m/s
20 m/s
18 m/s
16 m/s
14 m/s
12 m/s
10 m/s
8 m/s
6 m/s
4 m/s
2 m/s
3.0
2.8
2.6
2.4
2.2
2.0
1.8
1.6
1.4
1.2
1.0
0.8
0.6
0.4
0.2
15
14
13
12
11
10
9
8
7
6
5
4
3
2
1
90%
80%
70%
60%
50%
40%
30%
20%
10%
42
40
38
36
34
32
30
28
26
24
22
20
18
16
14
12
90+ cm
80-90 cm
70-80 cm
60-70 cm
50-60 cm
40-50 cm
30-40 cm
20-30 cm
10-20 cm
1-10 cm
Sneeuwval
Natte sneeuw
Regen
>120 mm
115 mm
110 mm
105 mm
100 mm
95 mm
90 mm
85 mm
80 mm
75 mm
70 mm
65 mm
60 mm
55 mm
50 mm
45 mm
45 mm
40 mm
35 mm
30 mm
25 mm
20 mm
15 mm
10 mm
5 mm
0.1 mm
960 hPa
880 hPa
800 hPa
720 hPa
640 hPa
560 hPa
584 gpdm
568 gpdm
552 gpdm
536 gpdm
520 gpdm
504 gpdm
488 gpdm
Extreem zwaar Noodweer Kans op onweer
15% 15% 5% 50% 15%

Dag




Kaart






35°
30°
25°
20°
15°
10°
-5°
-10°
-15°
-20°
-25°
-30°
-35°
33> m/s
29 m/s
25 m/s
21 m/s
17 m/s
14 m/s
11 m/s
8 m/s
5 m/s
3 m/s
0 m/s
Extreem zwaar Noodweer Kans op onweer
15% 15% 5% 50% 15%
>120 mm
115 mm
110 mm
105 mm
100 mm
95 mm
90 mm
85 mm
80 mm
75 mm
70 mm